Weather History for Wilmington, OH

Change the Weather History Date:

Monday, February 18, 2013

  Actual Average (KDAY) Record (KDAY)
Temperature  
Mean Temperature 36 °F 32 °F  
Max Temperature 53 °F 40 °F 64 °F (1948)
Min Temperature 19 °F 24 °F -9 °F (1900)
Degree Days  
Heating Degree Days 29 33  
Month to date heating degree days 634  
Since 1 July heating degree days 3957  
Cooling Degree Days 0 0  
Month to date cooling degree days 0  
Year to date cooling degree days 0  
Moisture  
Dew Point 25 °F    
Average Humidity 58    
Maximum Humidity 79    
Minimum Humidity 46    
Precipitation  
Precipitation 0.04 in 0.07 in 0.80 in (1914)
Month to date precipitation 1.43  
Year to date precipitation 4.14  
Snow  
Snow 0.00 in 0.20 in 3.50 in (1908)
Month to date snowfall 3.9  
Since 1 July snowfall 17.3  
Snow Depth -    
Sea Level Pressure  
Sea Level Pressure 30.06 in    
Wind  
Wind Speed 12 mph (South)    
Max Wind Speed 34 mph    
Max Gust Speed 60 mph    
Visibility 10 miles    
Events Rain    
T = Trace of Precipitation, MM = Missing Value Source: NWS Daily Summary

Daily Weather History Graph

Daily Weather History Graph

Search for Another Location

Airport:

Trip Planner

Search our weather history database for the weather conditions in past years. The results will help you decide how hot, cold, wet, or windy it might be!

Date:

Astronomy

Feb. 18, 2013 Rise Set
Actual Time 7:23 AM EST 6:15 PM EST
Civil Twilight 6:55 AM EST 6:43 PM EST
Nautical Twilight 6:24 AM EST 7:14 PM EST
Astronomical Twilight 5:53 AM EST 7:45 PM EST
Moon 12:01 PM EST (2/18) 2:01 AM EST (2/18)
Length of Visible Light 11h 47m
Length of Day
10h 52m
First Quarter, 58% of the Moon is Illuminated
Feb 18
First Quarter
Feb 25
Full
Mar 4
Last Quarter
Mar 11
New
Mar 19
First Quarter

Hourly Weather History & Observations

Time (EST) Temp. Windchill Dew Point Humidity Pressure Visibility Wind Dir Wind Speed Gust Speed Precip Events Conditions
12:54 AM 19.9 °F 11.1 °F 10.0 °F 65% 30.30 in 10.0 mi SE 6.9 mph - N/A   Clear
1:54 AM 21.0 °F 12.4 °F 10.0 °F 63% 30.30 in 10.0 mi SSE 6.9 mph - N/A   Clear
2:54 AM 21.0 °F 13.4 °F 10.0 °F 63% 30.29 in 10.0 mi SE 5.8 mph - N/A   Clear
3:54 AM 21.0 °F 11.4 °F 10.0 °F 63% 30.27 in 10.0 mi SE 8.1 mph - N/A   Clear
4:54 AM 21.0 °F 10.6 °F 10.0 °F 63% 30.26 in 10.0 mi SE 9.2 mph - N/A   Clear
5:54 AM 21.9 °F 11.7 °F 10.9 °F 63% 30.25 in 10.0 mi SSE 9.2 mph - N/A   Clear
7:54 AM 24.1 °F 12.5 °F 12.0 °F 60% 30.22 in 10.0 mi SSE 12.7 mph - N/A   Clear
8:54 AM 28.9 °F 19.8 °F 15.1 °F 56% 30.20 in 10.0 mi SSE 10.4 mph 19.6 mph N/A   Clear
9:54 AM 35.1 °F 26.4 °F 18.0 °F 50% 30.16 in 10.0 mi South 12.7 mph - N/A   Clear
10:54 AM 39.9 °F 30.5 °F 23.0 °F 51% 30.13 in 10.0 mi South 19.6 mph 27.6 mph N/A   Clear
11:54 AM 44.1 °F 36.8 °F 27.0 °F 51% 30.11 in 10.0 mi South 16.1 mph - N/A   Clear
12:54 PM 48.0 °F - 30.9 °F 52% 30.06 in 10.0 mi South 16.1 mph - N/A   Clear
1:54 PM 51.1 °F - 30.9 °F 46% 30.03 in 10.0 mi South 21.9 mph 27.6 mph N/A   Clear
2:54 PM 53.1 °F - 33.1 °F 47% 30.01 in 10.0 mi South 17.3 mph - N/A   Clear
3:54 PM 52.0 °F - 33.1 °F 49% 29.99 in 10.0 mi South 16.1 mph - N/A   Clear
4:54 PM 51.1 °F - 35.1 °F 54% 29.96 in 10.0 mi South 15.0 mph - N/A   Clear
5:54 PM 50.0 °F - 35.1 °F 57% 29.94 in 10.0 mi South 13.8 mph - N/A   Clear
6:54 PM 46.9 °F - 34.0 °F 61% 29.92 in 10.0 mi South 13.8 mph - N/A   Mostly Cloudy
7:54 PM 46.9 °F - 34.0 °F 61% 29.91 in 10.0 mi South 11.5 mph - N/A   Overcast
8:54 PM 46.9 °F - 32.0 °F 56% 29.88 in 10.0 mi South 15.0 mph - N/A   Partly Cloudy
9:54 PM 46.9 °F - 30.9 °F 54% 29.84 in 10.0 mi South 15.0 mph 23.0 mph 0.00 in Rain Light Rain
10:54 PM 48.9 °F - 30.9 °F 50% 29.80 in 10.0 mi SSW 24.2 mph 31.1 mph 0.00 in Rain Light Rain
11:02 PM 44.6 °F 34.1 °F 37.4 °F 76% 29.78 in 3.0 mi SSW 34.5 mph 59.8 mph 0.00 in Rain Rain
11:54 PM 44.1 °F 35.9 °F 37.9 °F 79% 29.81 in 6.0 mi SSW 19.6 mph 40.3 mph 0.04 in Rain Light Rain